This demonstration page uses our WeatherBlox Daily Observations layout. Learn more.

Left ArrowRight Arrow

Hourly Observations for July 23, 2021

Temp ( °F °C ) Dew Point ( °F °C ) Humidity (%) Winds ( mph kmh ) Pressure ( in mb ) Visibility ( mi km ) Precip ( " mm )
12:15 am 00:15 Clear 63 17 57 14 83 83 Calm 30.19 1022 10 16 0.00 0.00
12:35 am 00:35 Clear 63 17 57 14 83 83 Calm 30.19 1022 10 16 0.00 0.00
12:55 am 00:55 Clear 64 18 57 14 78 78 Calm 30.18 1022 10 16 0.00 0.00
1:15 am 01:15 Clear 63 17 57 14 83 83 Calm 30.18 1022 10 16 0.00 0.00
1:35 am 01:35 Clear 61 16 57 14 88 88 W 3 6 30.19 1022 10 16 0.00 0.00
1:55 am 01:55 Clear 61 16 57 14 88 88 W 5 7 30.19 1022 10 16 0.00 0.00
2:15 am 02:15 Clear 61 16 55 13 83 83 W 3 6 30.18 1022 10 16 0.00 0.00
2:35 am 02:35 Clear 61 16 55 13 83 83 W 3 6 30.17 1022 10 16 0.00 0.00
2:55 am 02:55 Clear 61 16 55 13 83 83 Calm 30.17 1022 10 16 0.00 0.00
3:15 am 03:15 Clear 61 16 57 14 88 88 Calm 30.17 1022 10 16 0.00 0.00
3:35 am 03:35 Clear 61 16 57 14 88 88 Calm 30.17 1022 10 16 0.00 0.00
3:55 am 03:55 Clear 61 16 55 13 83 83 WNW 3 6 30.17 1022 10 16 0.00 0.00
4:15 am 04:15 Clear 61 16 55 13 83 83 Calm 30.17 1022 10 16 0.00 0.00
4:35 am 04:35 Clear 63 17 55 13 77 77 Calm 30.17 1022 10 16 0.00 0.00
4:55 am 04:55 Clear 61 16 57 14 88 88 Calm 30.17 1022 10 16 0.00 0.00
5:15 am 05:15 Clear 61 16 55 13 83 83 Calm 30.17 1022 10 16 0.00 0.00
5:35 am 05:35 Clear 63 17 55 13 77 77 NE 3 6 30.17 1022 10 16 0.00 0.00
5:55 am 05:55 Clear 63 17 55 13 77 77 Calm 30.18 1022 10 16 0.00 0.00
6:15 am 06:15 Sunny 63 17 55 13 77 77 N 5 7 30.19 1022 10 16 0.00 0.00
6:35 am 06:35 Sunny 63 17 57 14 83 83 NNE 6 9 30.19 1022 10 16 0.00 0.00
6:55 am 06:55 Sunny 63 17 57 14 83 83 N 3 6 30.20 1023 10 16 0.00 0.00
7:15 am 07:15 Sunny 63 17 59 15 88 88 Calm 30.21 1023 10 16 0.00 0.00
7:35 am 07:35 Sunny 63 17 59 15 88 88 Calm 30.21 1023 10 16 0.00 0.00
7:55 am 07:55 Sunny 64 18 57 14 78 78 Calm 30.20 1023 10 16 0.00 0.00
8:15 am 08:15 Sunny 64 18 55 13 73 73 Calm 30.20 1023 10 16 0.00 0.00
8:35 am 08:35 Sunny 66 19 55 13 68 68 N 3 6 30.21 1023 10 16 0.00 0.00
8:55 am 08:55 Sunny 68 20 57 14 69 69 Calm 30.21 1023 10 16 0.00 0.00
9:15 am 09:15 Sunny 68 20 57 14 69 69 N 3 6 30.22 1023 10 16 0.00 0.00
9:35 am 09:35 Sunny 70 21 57 14 64 64 NNE 3 6 30.22 1023 10 16 0.00 0.00
9:55 am 09:55 Sunny 72 22 55 13 57 57 NNE 6 9 30.22 1023 10 16 0.00 0.00
10:15 am 10:15 Sunny 72 22 55 13 57 57 NNE 3 6 30.21 1023 10 16 0.00 0.00
10:35 am 10:35 Sunny 72 22 55 13 57 57 NNE 6 9 30.21 1023 10 16 0.00 0.00
10:55 am 10:55 Sunny 72 22 55 13 57 57 N 7 11 30.21 1023 10 16 0.00 0.00
11:15 am 11:15 Sunny 73 23 55 13 53 53 NE 6 9 30.21 1023 10 16 0.00 0.00
11:35 am 11:35 Sunny 73 23 57 14 57 57 ENE 5 7 30.20 1023 10 16 0.00 0.00
11:55 am 11:55 Sunny 75 24 54 12 47 47 ENE 6 9 30.20 1023 10 16 0.00 0.00
12:15 pm 12:15 Sunny 77 25 54 12 44 44 ENE 5 7 30.19 1022 10 16 0.00 0.00
12:35 pm 12:35 Sunny 77 25 54 12 44 44 Calm 30.18 1022 10 16 0.00 0.00
12:55 pm 12:55 Sunny 79 26 54 12 42 42 NNE 3 6 30.17 1022 10 16 0.00 0.00
1:15 pm 13:15 Sunny 79 26 54 12 42 42 ENE 5 7 30.17 1022 10 16 0.00 0.00
1:35 pm 13:35 Partly Cloudy 79 26 55 13 45 45 NW 6 9 30.17 1022 10 16 0.00 0.00
1:55 pm 13:55 Sunny 79 26 54 12 42 42 NNE 8 13 30.16 1021 10 16 0.00 0.00
2:15 pm 14:15 Sunny 79 26 54 12 42 42 ESE 3 6 30.16 1021 10 16 0.00 0.00
2:35 pm 14:35 Partly Cloudy 81 27 54 12 39 39 Calm 30.16 1021 10 16 0.00 0.00
2:55 pm 14:55 Sunny 81 27 54 12 39 39 ESE 6 9 30.15 1021 10 16 0.00 0.00
3:15 pm 15:15 Sunny 81 27 54 12 39 39 N 6 9 30.15 1021 10 16 0.00 0.00
3:35 pm 15:35 Sunny 81 27 55 13 42 42 NNE 7 11 30.15 1021 10 16 0.00 0.00
3:55 pm 15:55 Sunny 81 27 54 12 39 39 Calm 30.14 1021 10 16 0.00 0.00
4:15 pm 16:15 Partly Cloudy 81 27 55 13 42 42 N 8 13 30.14 1021 10 16 0.00 0.00
4:35 pm 16:35 Sunny 81 27 54 12 39 39 NNW 6 9 30.13 1020 10 16 0.00 0.00
4:55 pm 16:55 Sunny 81 27 55 13 42 42 NW 7 11 30.13 1020 10 16 0.00 0.00
5:15 pm 17:15 Sunny 81 27 54 12 39 39 Calm 30.13 1020 10 16 0.00 0.00
5:35 pm 17:35 Sunny 81 27 55 13 42 42 NW 6 9 30.12 1020 10 16 0.00 0.00
5:55 pm 17:55 Sunny 81 27 55 13 42 42 N 7 11 30.12 1020 10 16 0.00 0.00
6:15 pm 18:15 Sunny 81 27 54 12 39 39 Calm 30.12 1020 10 16 0.00 0.00
6:35 pm 18:35 Sunny 81 27 55 13 42 42 NE 5 7 30.11 1020 10 16 0.00 0.00
6:55 pm 18:55 Sunny 81 27 54 12 39 39 ENE 5 7 30.11 1020 10 16 0.00 0.00
7:15 pm 19:15 Sunny 81 27 54 12 39 39 NE 5 7 30.11 1020 10 16 0.00 0.00
7:35 pm 19:35 Sunny 79 26 54 12 42 42 NE 5 7 30.11 1020 10 16 0.00 0.00
7:55 pm 19:55 Sunny 79 26 54 12 42 42 ENE 5 7 30.11 1020 10 16 0.00 0.00
8:15 pm 20:15 Sunny 79 26 54 12 42 42 ENE 3 6 30.11 1020 10 16 0.00 0.00
8:35 pm 20:35 Clear 77 25 54 12 44 44 Calm 30.11 1020 10 16 0.00 0.00
8:55 pm 20:55 Clear 77 25 54 12 44 44 Calm 30.11 1020 10 16 0.00 0.00
9:15 pm 21:15 Clear 75 24 55 13 50 50 Calm 30.12 1020 10 16 0.00 0.00
9:35 pm 21:35 Clear 72 22 59 15 65 65 Calm 30.12 1020 10 16 0.00 0.00
9:55 pm 21:55 Clear 72 22 59 15 65 65 Calm 30.13 1020 10 16 0.00 0.00
10:15 pm 22:15 Clear 70 21 59 15 69 69 Calm 30.13 1020 10 16 0.00 0.00
10:35 pm 22:35 Clear 68 20 61 16 78 78 Calm 30.14 1021 10 16 0.00 0.00
10:55 pm 22:55 Clear 68 20 61 16 78 78 Calm 30.14 1021 10 16 0.00 0.00
11:15 pm 23:15 Mostly Cloudy 70 21 59 15 69 69 SW 3 6 30.14 1021 10 16 0.00 0.00
11:35 pm 23:35 Cloudy 66 19 59 15 78 78 Calm 30.15 1021 10 16 0.00 0.00
11:55 pm 23:55 Cloudy 66 19 61 16 83 83 W 3 6 30.15 1021 10 16 0.00 0.00

Powered by AerisWeather